TimeIST,TemperatureF,Dew PointF,Humidity,Sea Level PressureIn,VisibilityMPH,Wind Direction,Wind SpeedMPH,Gust SpeedMPH,PrecipitationIn,Events,Conditions,WindDirDegrees,DateUTC
12:00 AM,75.2,46.4,36,29.86,1.9,East,5.8,-,N/A,,Haze,90,2013-03-27 18:30:00
2:00 AM,75.2,44.6,34,29.83,1.9,ENE,8.1,-,N/A,,Haze,70,2013-03-27 20:30:00
2:30 AM,76,45,22,29.77,2,East,5.8,,,,Haze,90,2013-03-27 21:00:00
3:00 AM,75.2,44.6,34,29.83,1.9,Calm,Calm,-,N/A,,Haze,0,2013-03-27 21:30:00
4:00 AM,73.4,44.6,36,29.83,1.9,Calm,Calm,-,N/A,,Haze,0,2013-03-27 22:30:00
5:00 AM,69.8,44.6,40,29.83,1.9,Calm,Calm,-,N/A,,Haze,0,2013-03-27 23:30:00
5:30 AM,72,44,26,29.78,1,East,2.3,,,,Haze,90,2013-03-28 00:00:00
6:00 AM,71.6,44.6,38,29.83,1.9,East,5.8,-,N/A,,Haze,80,2013-03-28 00:30:00
8:00 AM,77.0,46.4,34,29.86,1.9,East,6.9,-,N/A,,Haze,80,2013-03-28 02:30:00
8:30 AM,78,49,26,29.79,2,East,6.9,,,,Haze,90,2013-03-28 03:00:00
9:00 AM,78.8,48.2,34,29.86,2.5,ESE,8.1,-,N/A,,Haze,110,2013-03-28 03:30:00
10:00 AM,80.6,51.8,37,29.89,2.5,South,8.1,-,N/A,,Haze,190,2013-03-28 04:30:00
11:30 AM,87,51,19,29.80,2,WSW,8.1,,,,Haze,250,2013-03-28 06:00:00
12:00 PM,86.0,48.2,27,29.89,3.1,WSW,8.1,-,N/A,,Haze,250,2013-03-28 06:30:00
1:00 PM,89.6,46.4,22,29.86,3.1,WSW,10.4,-,N/A,,Haze,250,2013-03-28 07:30:00
2:00 PM,91.4,44.6,20,29.83,3.1,West,11.5,-,N/A,,Haze,270,2013-03-28 08:30:00
3:00 PM,91.4,41.0,17,29.80,3.1,West,11.5,-,N/A,,Haze,260,2013-03-28 09:30:00
4:00 PM,91.4,42.8,18,29.77,3.1,Variable,9.2,-,N/A,,Haze,0,2013-03-28 10:30:00
5:00 PM,91.4,42.8,18,29.77,3.1,WNW,10.4,-,N/A,,Haze,290,2013-03-28 11:30:00
5:30 PM,90,44,12,29.69,2,WNW,6.9,,,,Haze,290,2013-03-28 12:00:00
6:00 PM,87.8,42.8,21,29.77,1.9,Variable,4.6,-,N/A,,Haze,0,2013-03-28 12:30:00
8:30 PM,80,54,30,29.75,1,,2.3,,,Thunderstorm,Thunderstorm,,2013-03-28 15:00:00
9:30 PM,75.2,60.8,61,29.86,1.2,Variable,5.8,-,N/A,Rain-Thunderstorm,Light Thunderstorms and Rain,0,2013-03-28 16:00:00
10:00 PM,71.6,62.6,73,29.86,1.2,Calm,Calm,-,N/A,,Haze,0,2013-03-28 16:30:00
11:00 PM,73.4,59.0,61,29.86,1.2,East,69.0,-,N/A,,Haze,90,2013-03-28 17:30:00
11:30 PM,73,61,56,29.82,1,East,3.5,,,Thunderstorm,Thunderstorm,90,2013-03-28 18:00:00